Chickamauga Observed Data For Previous 48 Hours

Caption
Day and Hour Reservoir Elevation (behind dam)* Tailwater Elevation (below dam)* Average Hourly Discharge*
11/11/2018 2 AM EST 679.66 639.43 57,485
11/11/2018 3 AM EST 679.66 639.42 57,582
11/11/2018 4 AM EST 679.66 639.41 57,472
11/11/2018 5 AM EST 679.65 639.42 57,552
11/11/2018 6 AM EST 679.66 639.42 57,481
11/11/2018 7 AM EST 679.65 639.39 57,548
11/11/2018 8 AM EST 679.64 639.42 57,506
11/11/2018 9 AM EST 679.64 639.42 57,536
11/11/2018 10 AM EST 679.69 639.41 57,495
11/11/2018 11 AM EST 679.64 639.42 57,595
11/11/2018 12 PM EST 679.62 639.42 57,447
11/11/2018 1 PM EST 679.62 639.41 57,506
11/11/2018 2 PM EST 679.59 639.44 57,480
11/11/2018 3 PM EST 679.59 639.51 57,471
11/11/2018 4 PM EST 679.58 639.47 57,579
11/11/2018 5 PM EST 679.58 639.39 57,540
11/11/2018 6 PM EST 679.56 639.44 57,653
11/11/2018 7 PM EST 679.58 639.41 57,420
11/11/2018 8 PM EST 679.57 639.38 57,517
11/11/2018 9 PM EST 679.57 639.38 57,370
11/11/2018 10 PM EST 679.56 639.40 57,504
11/11/2018 11 PM EST 679.57 639.38 57,458
11/12/2018 12 AM EST 679.55 639.41 57,470
11/12/2018 1 AM EST 679.56 639.39 57,425
11/12/2018 2 AM EST 679.55 639.38 57,562
11/12/2018 3 AM EST 679.53 639.38 57,498
11/12/2018 4 AM EST 679.53 639.38 57,541
11/12/2018 5 AM EST 679.54 639.34 57,489
11/12/2018 6 AM EST 679.55 639.33 57,547
11/12/2018 7 AM EST 679.56 639.33 57,534
11/12/2018 8 AM EST 679.56 639.33 57,612
11/12/2018 9 AM EST 679.56 639.34 57,548
11/12/2018 10 AM EST 679.59 639.37 57,657
11/12/2018 11 AM EST 679.59 639.38 57,581
11/12/2018 12 PM EST 679.61 639.40 57,665
11/12/2018 1 PM EST 679.63 639.44 57,701
11/12/2018 2 PM EST 679.65 639.51 57,856
11/12/2018 3 PM EST 679.67 639.57 57,742
11/12/2018 4 PM EST 679.73 639.61 57,857
11/12/2018 5 PM EST 679.76 639.65 57,766
11/12/2018 6 PM EST 679.76 639.67 57,937
11/12/2018 7 PM EST 679.79 639.72 57,742
11/12/2018 8 PM EST 679.81 639.75 57,870
11/12/2018 9 PM EST 679.86 639.82 57,765
11/12/2018 10 PM EST 679.89 639.91 57,861
11/12/2018 11 PM EST 679.90 639.89 57,838
11/13/2018 12 AM EST 679.92 639.96 57,913
11/13/2018 1 AM EST 679.95 639.92 57,902
11/13/2018 2 AM EST 680.01 639.93 58,057
11/13/2018 3 AM EST 680.03 639.94 57,987
11/13/2018 4 AM EST 680.09 639.97 58,041
11/13/2018 5 AM EST 680.12 639.96 58,018
11/13/2018 6 AM EST 680.16 639.93 57,873
11/13/2018 7 AM EST 680.21 639.96 57,955
11/13/2018 8 AM EST 680.25 639.96 57,938
11/13/2018 9 AM EST 680.28 640.00 58,018
11/13/2018 10 AM EST 680.35 640.02 58,024
11/13/2018 11 AM EST 680.36 640.07 58,109

Elevations are in feet above sea level. Discharges are in cubic feet per second and are reported at the end of the hour.